Regional Weather Roundup
Issued by NWS Grand Forks, ND

Home | Current Version | Previous Version | Text Only | Print | Product List | Glossary Off
Versions: 1 2 3 4 5 6 7 8 9 10 11 12 13 14 15 16 17 18 19 20 21 22 23 24 25 26 27 28 29 30 31 32 33 34 35 36 37 38 39 40 41 42 43 44 45 46 47 48 49 50

000
ASUS43 KFGF 221210
RWRFGF
PRAIRIE TO PINES  WEATHER ROUNDUP
NATIONAL WEATHER SERVICE EASTERN NORTH DAKOTA/GRAND FORKS ND
600 AM CST SUN JAN 22 2017

 **SATELLITE DATA USED TO AUGMENT SKY COVER AT AUTOMATED STATIONS**
 *****  WEATHER ACROSS EASTERN NORTH DAKOTA  *****

CITY           SKY/WX    TMP DP  RH WIND       PRES   REMARKS
GRAND FORKS    CLOUDY    34  32  92 W5        29.66R
6HR MIN TEMP:  34; 6HR MAX TEMP:  35;

GRAND FRKS AFB CLOUDY    34  33  99 NW5       29.66R
DEVILS LAKE    CLOUDY    30  28  92 W12       29.66R WCI  20
6HR MIN TEMP:  30; 6HR MAX TEMP:  32;

FARGO          CLOUDY    35  33  92 W6        29.67R FOG
WAHPETON ARPT  CLOUDY    32  32 100 NW5       29.67R VSB 3/4
$$

 ***** WEATHER ACROSS CENTRAL AND WESTERN NORTH DAKOTA  *****

CITY           SKY/WX    TMP DP  RH WIND       PRES   REMARKS
BISMARCK       CLOUDY    28  26  92 W9        29.71R WCI  19
6HR MIN TEMP:  14; 6HR MAX TEMP:  28;

MINOT          CLOUDY    31  26  82 W17       29.65S WCI  19
6HR MIN TEMP:  30; 6HR MAX TEMP:  32;

JAMESTOWN      CLOUDY    29  28  96 NW10      29.66R FOG     WCI  20
6HR MIN TEMP:  29; 6HR MAX TEMP:  32;

MINOT AFB      MOCLDY    29  26  89 NW17      29.65R WCI  17
GARRISON         N/A     30  27  88 W9        29.67R WCI  22
WILLISTON      CLOUDY    30  27  88 W9        29.72R WCI  22
6HR MIN TEMP:  30; 6HR MAX TEMP:  31;

DICKINSON      CLOUDY    20  17  88 W15       29.69R WCI   6
6HR MIN TEMP:  11; 6HR MAX TEMP:  20;

HETTINGER      FAIR      16  13  88 NW12      29.72R WCI   3
6HR MIN TEMP:  16; 6HR MAX TEMP:  21;

$$

 *****  OTHER AIRPORT OBSERVATIONS IN OUR AREA  *****

CITY           SKY/WX    TMP DP  RH WIND       PRES   REMARKS
WALHALLA       NOT AVBL
GRAFTON AIRPOR CLOUDY    34  34 100 NW6       29.67S FOG
VALLEY CITY AR CLOUDY    30  30 100 NW14      29.68S WCI  20
CANDO          NOT AVBL
CAVALIER APRT  CLOUDY    32  32 100 CALM      29.65S FOG
GWINNER        CLOUDY    32  32 100 W9        29.69R WCI  24
SHEYENNE NWR     N/A     33  33 100 NW5       29.95S
ROLLA            N/A    N/A N/A N/A MISG        N/A
 ***** THE ABOVE OBSERVATIONS ARE NON NWS ARE NOT QUALITY
       CONTROLLED AND MAY MIS-REPORT RAIN FOR SNOW...
$$

  *****  WEATHER ACROSS NORTHERN MINNESOTA  *****

CITY           SKY/WX    TMP DP  RH WIND       PRES   REMARKS
FLAG ISLAND    FOG       32  32 100 CALM      29.65S VSB 1
WARROAD        FOG       34  28  80 CALM      29.65F VSB 3/4
ROSEAU         HAZE      34  28  80 CALM      29.65S VSB 1
HALLOCK        DRZL/FOG  34  34 100 CALM      29.65S VSB 1
THF RVR FALLS  FOG       33  32  96 CALM      29.66R VSB 1/4
6HR MIN TEMP:  33; 6HR MAX TEMP:  33;

BAUDETTE       CLOUDY    33  33 100 N3        29.64S FOG
6HR MIN TEMP:  32; 6HR MAX TEMP:  34;

WASKISH        CLOUDY    34  34 100 CALM      29.64S FOG
CROOKSTON      FOG       34  34 100 CALM      29.67R VSB 1/2
GREENBUSH NDAW   N/A     32  34 100 SE2         N/A
$$
  *****  WEATHER ACROSS CENTRAL AND WEST MINNESOTA  *****

CITY           SKY/WX    TMP DP  RH WIND       PRES   REMARKS
FOSSTON        FOG       30  30 100 CALM      29.65R VSB 1/2
BEMIDJI        FOG       32  32 100 CALM      29.63R VSB 1/2
PARK RAPIDS    FOG       34  31  88 CALM      29.63R VSB 1/2
6HR MIN TEMP:  33; 6HR MAX TEMP:  35;

ELBOW LAKE     FOG       32  32 100 W6        29.65S VSB 3/4
6HR MIN TEMP:  32; 6HR MAX TEMP:  33;

WADENA         FOG       32  32 100 CALM      29.64R VSB 3/4
DETROIT LAKES  FOG       34  34 100 W3        29.66R VSB 1/2
MOORHEAD       FOG       34  32  93 W5        29.67R VSB 1/4
FERGUS FALLS   FOG       34  34 100 NW5       29.70R VSB 1/4
MORRIS MN      FOG       34  34 100 NW8       29.64S VSB 1/2
STAPLES        CLOUDY    32  32 100 CALM      29.64R FOG
$$
  *****  WEATHER ELSEWHERE ACROSS MINNESOTA  *****

CITY           SKY/WX    TMP DP  RH WIND       PRES   REMARKS
DULUTH         DRIZZLE   34  34 100 N6        29.59S FOG
6HR MIN TEMP:  34; 6HR MAX TEMP:  35; 6HR PCP: TRACE;

INTRNTL FALLS  FOG       34  32  92 N3        29.64R VSB 1/2
6HR MIN TEMP:  34; 6HR MAX TEMP:  34;

ELY            CLOUDY    32  32 100 CALM      29.60S FOG
CLOQUET        CLOUDY    34  34 100 NW3       29.60S FOG
WHEATON        CLOUDY    39  39 100 W6        29.69R FOG
BRAINERD       CLOUDY    33  33 100 N5        29.63R FOG
6HR MIN TEMP:  33; 6HR MAX TEMP:  34;

HIBBING        CLOUDY    32  32 100 CALM      29.61R
6HR MIN TEMP:  32; 6HR MAX TEMP:  33;

ALEXANDRIA     CLOUDY    34  34 100 N3        29.64R FOG
6HR MIN TEMP:  33; 6HR MAX TEMP:  34;

SAINT CLOUD    CLOUDY    34  34 100 N5        29.63R FOG
6HR MIN TEMP:  33; 6HR MAX TEMP:  34;

MINNEAPOLIS    CLOUDY    35  33  92 NW8       29.63R
6HR MIN TEMP:  35; 6HR MAX TEMP:  36; 6HR PCP: TRACE;

$$

  *****  WEATHER ACROSS SOUTH DAKOTA  *****

CITY           SKY/WX    TMP DP  RH WIND       PRES   REMARKS
SIOUX FALLS    CLOUDY    33  31  92 NW8       29.68R
6HR MIN TEMP:  32; 6HR MAX TEMP:  33;

BROOKINGS      CLOUDY    32  31  96 NW9       29.66R WCI  24
WATERTOWN      CLOUDY    32  31  96 NW12      29.66R FOG     WCI  23
6HR MIN TEMP:  31; 6HR MAX TEMP:  32; 6HR PCP: TRACE;

HURON          CLOUDY    26  26 100 NW15      29.72R FOG     WCI  14
6HR MIN TEMP:  26; 6HR MAX TEMP:  31;

SISSETON         N/A     34  33  96 N10       29.67R
ABERDEEN       CLOUDY    27  25  92 NW10      29.71S FOG     WCI  17
6HR MIN TEMP:  27; 6HR MAX TEMP:  32;

MITCHELL       CLOUDY    29  28  96 W13       29.73R FOG     WCI  19
PIERRE         FAIR      19  16  88 CALM      29.73R
6HR MIN TEMP:  17; 6HR MAX TEMP:  23;

MOBRIDGE       FAIR      12   7  80 N7        29.71R WCI   1
RAPID CITY     FAIR      28  19  69 W9        29.74R WCI  19
6HR MIN TEMP:  24; 6HR MAX TEMP:  29;

$$

  *****  SOME WEATHER IN NEARBY STATES *****

CITY           SKY/WX    TMP DP  RH WIND       PRES   REMARKS
GLASGOW MT     CLOUDY    27  25  92 W14       29.76R WCI  16
6HR MIN TEMP:  20; 6HR MAX TEMP:  27;

GREAT FALLS MT CLOUDY    25  20  81 CALM      29.80R
6HR MIN TEMP:  23; 6HR MAX TEMP:  27;

CHEYENNE WY    FAIR      28  14  55 W17G26    29.80R WCI  16
6HR MIN TEMP:  27; 6HR MAX TEMP:  30;

SCOTTSBLUFF NE FAIR      26  21  81 W10       29.80R WCI  16
6HR MIN TEMP:  23; 6HR MAX TEMP:  30;

OMAHA NE       CLOUDY    32  28  85 N13       29.68R WCI  22
6HR MIN TEMP:  29; 6HR MAX TEMP:  33;

DES MOINES IA  CLOUDY    32  31  96 N6        29.64R
6HR MIN TEMP:  29; 6HR MAX TEMP:  34;

DAVENPORT IA   FOG       30  28  92 W3        29.60R VSB 1/4
6HR MIN TEMP:  30; 6HR MAX TEMP:  40;

CHICAGO IL     MOCLDY    41  38  89 N5        29.59R
6HR MIN TEMP:  38; 6HR MAX TEMP:  42;

EAU CLAIRE WI  CLOUDY    33  33 100 W3        29.58R FOG
6HR MIN TEMP:  33; 6HR MAX TEMP:  34; 6HR PCP:  0.02;

LA CROSSE WI   FOG       38  36  92 CALM      29.60R VSB 3/4
6HR MIN TEMP:  38; 6HR MAX TEMP:  42;

$$

  *****  SOME NATIONAL WEATHER *****

CITY           SKY/WX    TMP DP  RH WIND       PRES   REMARKS
LA GUARDIA NY  FOG       45  44  97 NE3       29.74R VSB 1
6HR MIN TEMP:  45; 6HR MAX TEMP:  47;

RALEIGH NC     CLOUDY    53  52  96 W5        29.70R
6HR MIN TEMP:  53; 6HR MAX TEMP:  54;

ATLANTA GA     MOCLDY    57  56  96 SE8       29.58S
6HR MIN TEMP:  57; 6HR MAX TEMP:  58; 6HR PCP:  0.50;

NEW ORLEANS LA MOCLDY    68  65  90 NW9       29.48F
6HR MIN TEMP:  68; 6HR MAX TEMP:  70;

OKLAHOMA CITY  CLOUDY    47  44  90 N22G29    29.46R
6HR MIN TEMP:  45; 6HR MAX TEMP:  49;

ALBUQUERQUE NM FAIR      34  21  59 N7        30.03R
6HR MIN TEMP:  34; 6HR MAX TEMP:  39;

SALT LAKE CITY FAIR      28  22  78 SE12      29.96F WCI  18
6HR MIN TEMP:  26; 6HR MAX TEMP:  33;

LOS ANGELES CA LGT RAIN  52  49  89 E10       30.09F
6HR MIN TEMP:  52; 6HR MAX TEMP:  56; 6HR PCP:  0.03;

BOISE ID       FAIR     C1F1C2F2C3F3C4F4C5F5C6F6C7F7C8F8C9F9CaFaCbFbCcFcCd!



USA.gov is the U.S. government's official web portal to all federal, state and local government web resources and services.